Dewpoint
68 69 68 67 58 56 52 54 58 56 57 56 55 54 55 58 55 53 64 65 65 69 69 72 73 73 73 73 73 73 73 73 73 72 72 72 72 72 71 71 71 72 70 70 71 69 68 70 71
67 68 67 64 55 51 52 55 57 56 58 56 58 58 58 58 62 63 64 66 66 68 67 71 73 73 72 73 73 73 72 73 73 72 72 72 72 72 72 71 70 70 71 70 70 69 69 69 69
68 67 64 59 55 52 52 56 59 60 57 56 59 60 60 60 63 62 65 66 66 69 68 71 73 72 73 73 72 73 73 72 72 72 72 72 71 71 71 70 69 70 69 70 70 69 69 69 69
66 67 64 57 53 55 57 59 60 60 57 56 60 58 61 63 62 64 67 67 66 69 67 72 73 71 73 72 73 73 72 71 72 72 71 72 72 71 71 71 71 71 70 70 70 69 70 69 69
67 65 57 55 55 57 59 61 61 59 58 59 58 58 60 63 65 66 67 66 66 67 69 71 73 72 73 72 72 73 72 71 72 72 72 71 71 71 71 71 71 71 70 69 69 69 69 69 69
63 61 54 51 54 57 59 60 62 59 61 59 59 58 60 64 66 66 66 66 67 66 67 70 72 72 72 72 71 72 72 72 72 72 72 72 71 72 72 71 71 70 69 69 68 69 69 69 69
60 57 53 53 54 56 58 61 59 61 60 59 59 57 62 64 66 67 66 67 67 66 69 69 71 71 72 72 72 73 72 72 72 73 73 72 72 72 71 71 71 70 69 68 68 69 69 69 70
61 57 53 54 53 53 59 58 61 61 59 60 59 57 59 63 67 67 66 66 68 66 69 69 71 68 69 70 72 72 72 73 73 73 73 72 72 72 71 71 70 70 68 68 68 69 69 70 70
60 53 50 53 54 55 59 59 61 63 58 57 57 58 61 65 67 66 65 65 68 66 69 67 70 69 71 70 71 70 72 72 72 73 74 73 71 70 69 70 70 70 70 69 68 69 69 70 70
58 55 52 55 56 56 57 59 60 60 58 56 58 60 63 65 65 64 62 62 65 65 68 67 69 70 70 69 71 71 71 70 71 72 72 71 71 71 69 70 70 70 70 70 71 69 70 68 66
59 55 55 54 55 58 58 58 61 59 57 57 58 61 63 63 63 62 61 63 63 65 67 69 69 71 70 70 70 71 71 71 72 71 70 71 71 71 69 69 70 69 69 67 68 69 66 66 65
57 59 58 57 55 55 56 58 59 59 58 59 59 61 62 61 61 61 60 63 64 65 67 69 69 70 70 71 70 70 70 70 69 69 70 70 70 70 71 68 69 69 68 69 69 68 69 68 68
56 58 58 59 57 56 56 55 56 58 59 59 60 61 60 60 60 60 61 64 64 64 66 69 70 70 71 71 70 70 70 70 69 68 67 69 69 70 69 68 69 70 70 70 69 69 67 68 68
53 55 56 55 53 54 53 51 56 59 58 58 60 60 60 59 59 60 62 63 64 65 67 69 70 69 71 70 71 70 70 70 70 69 66 68 68 70 70 70 70 70 70 69 70 70 66 65 64
49 49 47 46 48 50 50 51 55 57 58 58 59 59 59 59 59 60 62 63 65 65 67 68 69 69 70 70 70 69 69 69 68 67 67 67 69 70 71 70 70 69 70 70 69 68 66 64 65
35 39 42 46 47 48 49 46 57 57 57 57 58 58 58 58 59 61 62 63 64 65 67 68 67 67 68 68 69 68 67 68 69 70 70 70 69 71 72 71 69 70 70 70 68 66 64 63 64
34 26 38 44 47 47 48 46 58 57 56 56 57 58 58 58 59 62 63 64 65 66 67 68 68 67 67 68 67 67 67 68 68 69 69 71 70 70 71 70 71 71 71 70 69 68 64 62 62
24 26 38 44 44 46 47 47 58 57 56 55 55 56 57 57 57 61 63 64 66 66 67 67 67 67 68 68 69 66 65 67 68 68 69 70 70 70 71 71 72 71 70 69 68 69 66 65 63
33 33 33 41 44 44 46 46 56 58 58 55 54 55 55 56 56 59 62 63 66 67 67 67 67 67 67 67 65 65 64 66 67 69 70 71 71 71 72 71 71 71 70 69 68 66 65 63 64
27 31 33 37 39 41 44 44 53 58 58 58 56 54 54 54 55 58 61 62 63 66 67 67 67 68 68 66 67 66 66 67 68 70 70 71 71 72 72 71 70 71 69 71 69 68 62 62 63
22 25 31 32 31 37 38 39 46 57 58 59 58 57 56 55 55 58 60 61 62 64 66 67 67 67 67 67 67 68 68 68 68 69 69 70 71 72 73 72 71 71 70 69 70 68 66 59 63
15 22 30 31 29 34 38 37 40 49 56 58 58 58 58 57 57 58 59 60 61 63 65 66 67 67 67 68 66 66 64 64 65 67 68 70 71 71 73 73 72 72 72 70 70 70 67 63 60
16 19 18 26 30 29 31 34 37 47 51 55 57 58 59 59 58 58 60 61 61 63 64 65 67 68 68 69 68 67 65 65 66 66 69 70 71 71 71 72 72 71 71 71 72 71 70 66 61
21 23 21 18 21 28 31 31 33 42 47 52 56 58 59 59 59 60 60 61 62 63 63 64 66 67 68 69 68 69 67 66 66 66 66 66 68 69 71 71 72 72 71 72 71 72 71 68 63
24 19 20 19 15 19 30 30 32 36 44 47 53 57 58 59 60 60 60 61 62 63 64 64 65 66 67 68 68 68 68 68 67 67 65 65 66 68 69 71 72 71 72 72 72 72 71 70 67
25 22 15 16 11 8 25 28 30 34 35 43 49 53 57 59 59 60 60 61 63 63 64 64 65 66 67 67 68 68 69 66 66 67 65 65 64 65 69 71 71 72 72 72 72 71 71 71 69
25 25 22 16 23 17 12 26 31 33 33 35 42 50 55 57 59 59 60 61 62 63 64 65 65 66 66 66 67 68 68 68 66 67 68 66 67 65 68 70 70 71 71 72 72 71 72 72 71
26 27 25 23 15 15 15 16 21 30 31 34 38 43 52 56 58 59 60 60 62 62 64 65 65 66 66 66 67 67 68 69 68 68 68 67 67 68 66 69 70 71 71 72 72 70 72 72 71
26 26 27 25 23 15 14 16 23 27 34 33 37 41 46 53 57 58 60 61 62 62 63 64 65 66 66 66 66 67 67 67 68 67 68 68 68 69 69 69 70 70 71 71 72 71 70 72 71
31 27 25 27 25 25 22 16 25 30 31 33 33 36 43 50 55 57 58 61 61 62 62 63 64 64 65 66 67 67 67 68 67 68 68 69 69 69 69 69 70 70 70 70 71 70 69 70 71
Wind_Speed
16 13 8 3 2 1 3 1 1 5 6 4 15 5 9 6 3 3 17 16 22 19 17 15 17 16 15 16 16 16 16 15 14 13 13 13 12 11 10 9 8 9 11 10 8 11 10 10 12
15 12 2 1 2 3 2 2 3 5 7 18 12 11 6 4 5 11 17 22 23 20 18 16 15 17 16 16 15 16 15 15 13 13 12 11 11 11 10 9 10 10 9 11 10 12 11 12 12
14 8 3 3 2 3 3 3 1 5 14 17 6 8 4 4 7 25 18 25 22 19 17 17 15 16 14 17 16 15 15 15 13 12 12 12 13 11 10 10 11 11 10 9 11 10 11 10 10
9 4 2 4 6 4 2 5 6 6 11 9 11 9 5 3 19 11 25 26 23 20 18 18 18 16 15 16 15 14 14 14 13 13 14 13 13 12 12 11 11 9 10 9 9 10 10 8 7
3 2 3 2 3 2 5 3 3 10 12 9 5 6 5 5 9 24 26 23 23 21 18 19 17 15 15 16 15 14 13 14 13 14 14 14 13 13 12 12 11 10 10 10 9 10 9 8 8
3 1 2 3 3 3 5 5 1 10 7 9 8 10 4 10 22 26 25 23 21 21 19 19 16 15 15 17 15 14 12 13 13 13 14 14 14 12 12 11 11 10 9 9 10 10 10 9 8
2 2 2 2 3 3 4 7 4 7 11 7 15 7 8 15 23 24 25 21 21 19 18 17 16 15 14 15 14 13 13 13 14 13 14 14 12 12 11 10 10 11 9 10 11 11 9 9 8
3 2 3 3 4 3 6 7 6 6 4 16 10 7 11 20 22 24 23 22 20 19 17 16 14 15 14 14 13 13 12 12 11 12 13 12 12 10 11 10 8 9 10 10 10 12 9 10 10
2 2 4 5 4 3 4 6 4 7 15 4 9 9 22 30 25 25 24 21 20 18 17 16 14 14 13 13 12 13 12 12 12 11 10 10 8 8 9 10 8 8 9 9 9 9 10 11 11
5 3 3 5 8 5 6 6 8 5 14 6 8 18 29 30 28 29 27 25 23 21 18 17 15 15 14 12 12 11 11 10 9 8 7 6 6 7 6 7 7 7 8 7 7 7 9 6 8
6 5 2 6 8 6 1 7 7 7 12 11 22 29 32 32 30 28 26 24 24 22 18 17 16 14 14 12 11 9 8 8 7 7 6 5 4 4 4 4 6 4 4 4 5 6 4 4 6
5 11 5 1 7 3 5 3 4 13 1 13 26 34 36 35 33 30 28 25 23 22 20 18 16 15 13 12 11 10 9 8 8 6 5 5 4 3 2 4 5 5 3 3 4 4 4 4 4
16 6 5 7 7 9 9 10 7 13 3 16 26 33 35 32 31 27 25 23 22 22 20 19 17 15 14 12 10 9 8 8 6 6 5 5 4 4 3 2 4 4 2 3 3 3 4 3 4
6 16 11 9 9 9 10 10 8 4 14 22 28 34 34 34 33 28 27 26 24 22 21 19 18 15 14 12 11 9 8 7 6 5 4 4 3 4 3 2 3 4 3 3 2 3 4 3 3
9 6 9 11 11 8 4 4 9 15 18 24 27 32 32 31 31 30 28 27 26 23 21 21 19 16 15 12 11 9 8 7 6 5 3 3 2 4 3 3 4 5 5 3 3 5 4 4 6
6 6 6 4 11 8 9 3 7 18 21 23 26 30 31 30 31 28 26 25 24 22 22 21 18 17 16 13 11 9 8 7 6 5 4 3 2 2 3 3 5 6 6 4 4 5 5 5 6
6 11 16 4 9 6 14 2 8 16 19 23 26 30 30 30 28 26 26 25 24 23 22 22 20 18 17 13 11 9 8 8 6 5 5 6 5 4 2 3 5 6 4 5 4 4 3 5 5
16 17 8 17 10 13 15 8 13 18 18 23 27 29 29 30 32 28 27 25 23 22 21 21 20 18 16 12 10 8 8 7 6 7 8 7 6 5 4 3 5 6 5 4 4 5 4 3 3
5 7 14 13 8 11 16 12 16 19 18 21 25 29 30 31 29 27 26 26 24 23 22 22 22 19 16 15 14 12 12 9 8 8 8 8 8 7 4 2 3 4 5 7 6 7 7 5 5
21 8 15 12 3 10 10 17 13 23 26 28 29 30 32 30 30 29 28 28 28 26 25 22 23 20 19 16 14 9 11 7 5 5 7 7 9 9 7 5 5 5 4 4 6 5 6 4 5
23 24 14 8 5 12 8 15 15 17 17 19 22 23 25 30 33 32 32 31 29 29 27 25 23 22 20 17 14 7 7 3 6 5 7 9 10 9 9 8 5 6 5 5 5 4 4 4 4
26 21 22 14 6 16 13 22 19 17 24 25 25 27 28 30 31 32 34 33 33 30 26 25 24 22 21 20 18 17 16 15 13 10 7 9 11 11 11 9 7 6 4 6 5 4 3 4 4
19 10 23 24 18 13 14 13 22 13 19 25 29 30 30 31 33 35 36 34 31 29 28 26 24 23 21 21 20 21 18 16 12 11 9 8 10 12 12 10 9 8 7 6 6 7 6 4 4
10 4 15 17 21 28 28 18 24 18 23 24 26 28 30 31 33 33 32 31 31 28 28 27 26 25 24 23 23 22 21 18 15 14 15 13 11 11 12 12 11 9 7 7 7 5 6 6 5
25 19 9 11 19 34 26 24 25 17 17 19 26 30 33 33 33 34 33 33 32 32 30 28 27 28 26 26 26 25 23 21 20 19 17 17 15 13 13 14 13 11 10 8 7 8 6 8 7
27 25 15 16 21 25 21 19 22 31 27 15 18 25 24 29 30 32 34 33 32 33 31 30 30 29 28 28 27 25 24 22 22 20 19 18 17 16 13 14 13 13 11 9 9 8 9 8 8
19 34 28 17 4 15 23 25 14 16 21 27 23 17 22 28 32 35 35 34 33 33 35 33 30 30 29 29 26 25 24 24 22 21 19 18 15 15 15 15 15 14 14 12 10 10 11 9 9
24 17 26 22 27 21 10 25 23 28 18 22 24 22 22 26 29 31 33 36 35 35 33 31 32 32 31 29 27 25 25 23 22 19 21 19 16 15 15 16 15 14 15 14 13 11 11 10 9
21 19 19 25 25 23 25 13 18 26 28 26 20 27 26 26 30 32 35 36 36 34 33 35 33 32 31 29 29 27 26 25 22 22 21 20 18 16 17 18 16 15 15 15 15 15 14 13 12
10 16 33 24 31 31 18 19 8 17 25 29 31 24 26 29 30 32 34 31 31 34 34 36 34 35 32 30 29 29 26 25 25 25 23 21 20 18 19 18 17 15 15 15 16 16 16 17 15
Wind_Direction
151 135 149 179 191 215 268 19 183 107 133 131 148 142 135 63 111 106 146 150 144 142 146 135 131 128 121 119 119 117 117 118 121 124 129 133 130 128 125 125 127 109 104 99 95 109 106 101 103
148 135 167 271 243 210 162 360 35 117 127 130 104 125 91 96 88 132 139 149 144 143 145 137 135 124 133 128 123 120 119 120 122 131 134 132 133 131 126 123 98 99 94 101 94 93 98 104 108
151 172 186 189 224 260 138 112 107 93 140 147 109 63 78 102 116 144 136 146 144 142 143 138 134 133 129 117 117 115 122 121 122 129 130 129 135 130 117 108 100 100 98 90 98 98 99 105 109
155 199 222 220 218 210 224 158 77 139 148 166 124 86 93 299 151 154 147 149 145 144 146 140 134 140 128 125 121 118 115 117 120 124 125 125 126 123 113 105 102 104 106 101 105 101 102 97 103
190 237 257 259 252 155 130 240 303 170 151 148 149 118 87 93 131 143 148 151 146 146 147 144 137 140 132 130 124 120 115 121 123 123 127 131 120 106 110 110 110 102 101 110 112 111 101 96 93
159 272 229 223 261 132 139 194 310 155 130 146 110 117 98 138 143 148 152 153 148 148 148 143 144 141 135 127 128 122 120 120 120 128 120 105 107 112 104 101 99 101 103 112 120 112 102 100 89
167 201 253 232 240 151 165 135 152 120 145 170 143 113 125 149 149 152 152 151 151 151 148 147 148 142 128 128 133 128 126 122 131 127 110 110 108 109 106 99 103 105 104 113 120 118 112 92 92
183 210 250 228 234 113 137 173 164 156 107 133 157 156 164 163 151 151 153 154 155 155 152 151 149 143 145 143 144 133 128 121 117 111 113 115 114 110 101 112 104 107 108 113 126 127 120 102 92
181 222 234 182 218 150 163 164 120 111 143 156 163 148 147 156 150 152 155 157 157 160 159 159 150 151 146 146 147 144 139 133 128 123 113 113 115 112 111 98 99 89 95 108 122 129 123 111 113
201 235 228 182 189 173 187 184 152 145 158 131 115 123 142 154 160 159 162 164 166 166 165 165 163 159 154 152 151 151 150 142 138 134 134 125 129 114 105 111 95 72 81 86 86 115 121 140 110
186 236 238 180 171 134 137 206 171 163 193 186 162 153 156 160 165 165 168 168 171 170 170 174 170 166 162 155 158 159 157 151 141 138 137 129 128 112 111 116 101 90 62 84 108 137 140 131 133
229 245 239 253 155 141 177 140 204 193 226 180 165 161 161 167 170 171 171 172 173 173 177 178 177 172 171 165 170 166 166 163 158 156 151 152 149 130 131 121 102 92 82 82 105 103 110 158 163
222 250 220 239 256 246 258 259 249 210 130 147 153 163 166 170 171 174 172 173 175 180 182 186 181 177 177 176 173 173 174 178 168 172 168 167 167 138 146 127 107 93 95 90 107 100 95 127 168
233 243 263 280 263 253 262 277 181 156 138 144 160 168 170 174 175 173 178 178 182 181 184 187 189 184 183 182 179 179 183 177 180 183 172 187 182 151 138 136 122 127 140 95 91 74 83 58 111
245 292 289 251 252 232 211 204 219 154 154 156 169 169 172 178 180 184 183 183 184 184 183 189 191 189 191 189 185 184 186 178 178 175 163 171 196 167 143 151 136 120 126 119 104 96 86 100 98
219 235 252 189 211 225 195 248 179 161 162 165 169 173 176 182 188 188 188 189 189 187 187 188 191 193 195 193 191 188 190 193 197 189 193 197 209 204 170 169 141 138 135 137 113 107 105 104 89
196 221 218 262 191 172 196 205 168 170 167 170 174 179 182 182 192 194 195 194 191 193 188 189 191 196 199 196 198 194 194 205 207 210 218 203 210 208 218 193 149 155 147 138 134 107 94 100 89
203 212 207 209 187 205 204 215 167 177 180 179 178 182 187 190 194 192 197 198 196 195 197 195 192 196 196 193 195 197 202 213 221 229 235 214 208 204 218 211 171 174 154 125 132 129 81 107 137
250 238 227 214 204 203 214 224 191 182 187 186 187 188 191 197 195 196 197 198 199 197 198 200 196 194 187 193 192 196 204 207 218 228 221 201 197 191 191 236 191 196 161 157 138 119 128 120 141
243 262 243 248 248 233 219 236 208 189 198 194 193 194 193 194 196 200 199 201 202 200 200 199 203 195 192 192 193 196 192 203 202 207 204 202 190 187 189 209 221 218 168 133 141 158 147 131 173
234 232 239 254 330 249 241 240 209 209 208 202 205 206 202 199 196 200 203 203 203 203 202 200 200 200 196 196 186 171 168 150 193 192 197 204 194 191 194 198 209 223 198 170 178 181 170 142 169
230 228 238 257 294 231 216 241 220 207 207 207 205 207 205 203 203 201 203 204 205 204 201 200 198 198 199 192 196 191 199 199 203 203 199 193 197 198 200 200 207 218 223 198 177 180 171 173 188
229 223 231 242 252 279 232 238 233 207 210 212 212 211 209 204 203 204 205 204 204 201 200 200 198 196 197 194 198 198 203 208 200 202 206 205 200 205 204 205 205 209 211 217 181 181 183 193 205
223 221 229 235 238 245 239 230 239 207 215 215 211 213 211 207 207 208 205 203 205 201 200 198 195 198 195 195 198 202 205 200 203 203 209 210 205 204 210 204 202 212 207 202 212 220 192 197 198
206 199 193 213 214 233 231 235 231 208 221 221 207 209 212 206 204 205 201 202 201 202 199 195 194 199 197 199 201 204 208 203 204 202 212 212 212 208 206 202 202 205 210 206 201 210 210 202 204
211 204 203 209 225 233 216 237 223 228 243 240 229 215 207 207 207 206 203 200 199 200 197 197 196 201 197 200 205 206 208 212 216 214 218 219 222 219 209 202 206 207 214 211 209 218 224 213 215
207 215 217 251 264 246 225 235 266 223 232 231 231 220 206 206 206 204 202 200 198 197 200 198 196 199 201 202 203 208 209 211 214 215 214 221 224 224 215 208 209 209 214 217 214 225 224 220 218
229 206 207 219 237 236 214 222 226 212 218 215 226 219 214 208 208 206 203 201 198 198 198 198 199 198 200 202 203 207 211 211 212 209 213 215 215 216 212 211 212 208 211 214 214 227 233 226 226
208 212 214 221 228 234 242 232 225 224 211 223 220 220 219 209 207 205 205 204 200 197 194 197 198 198 199 201 202 206 209 211 212 212 214 213 210 207 209 214 214 213 214 213 217 226 232 229 229
298 255 216 219 222 231 256 242 213 219 217 217 226 226 216 215 211 206 207 203 203 201 197 198 197 200 199 199 200 203 204 205 209 210 211 208 208 206 212 217 219 217 216 215 217 224 233 230 230